1484906400.81,50878,7.19,74190.5,0.77,-4.57,-4.33,0,*4D
1484906402.05,50879,7.19,74192.5,0.77,-5.03,-4.73,0,*48
1484906403.3,50880,7.19,74184.0,0.77,-5.15,-5.03,0,*4F
1484906404.51,50881,7.19,74188.3,0.77,-4.99,-4.81,0,*40
1484906405.76,50882,7.19,74188.0,0.79,-5.51,-5.27,0,*45
1484906407.01,50883,7.19,74186.8,0.79,-6.01,-5.81,0,*4E
1484906408.25,50884,7.19,74188.5,0.79,-5.77,-5.51,0,*46
1484906409.47,50885,7.19,74186.8,0.79,-6.13,-6.01,0,*40
1484906410.7,50886,7.19,74188.0,0.73,-5.85,-5.65,0,*44
1484906411.93,50887,7.19,74188.8,0.73,-5.93,-5.81,0,*48
1484906413.15,50888,7.19,74190.5,0.77,-5.51,-5.27,0,*41
1484906414.39,50889,7.19,74190.0,0.73,-5.15,-4.89,0,*41
1484906415.61,50890,7.19,74182.5,0.77,-5.47,-5.27,0,*4F
1484906416.84,50891,7.19,74186.3,0.73,-5.81,-5.65,0,*46
1484906418.03,50892,7.19,74186.3,0.77,-6.59,-6.31,0,*45
1484906419.23,50893,7.19,74190.3,0.73,-5.97,-5.81,0,*49
1484906420.43,50894,7.19,74186.3,0.73,-6.05,-5.93,0,*45
1484906421.64,50895,7.19,74182.5,0.69,-5.69,-5.35,0,*4A
1484906422.85,50896,7.19,74182.3,0.77,-6.19,-6.05,0,*42
1484906424.07,50897,7.19,74186.3,0.69,-6.09,-5.85,0,*46
1484906425.27,50898,7.19,74184.0,0.69,-5.97,-5.77,0,*40
1484906426.51,50899,7.19,74184.3,0.67,-5.51,-5.23,0,*44
1484906427.74,50900,7.19,74190.8,0.69,-5.11,-4.81,0,*46
1484906428.97,50901,7.19,74184.5,0.67,-6.01,-5.73,0,*47
1484906430.15,50902,7.19,74186.5,0.69,-6.09,-5.97,0,*48
1484906431.38,50903,7.19,74184.8,0.69,-5.89,-5.61,0,*4B
1484906432.64,50904,7.19,74184.8,0.67,-5.61,-5.27,0,*46
1484906433.88,50905,7.19,74184.3,0.67,-5.81,-5.51,0,*48
1484906435.11,50906,7.19,74182.5,0.67,-6.19,-6.13,0,*4C
1484906436.31,50907,7.19,74184.0,0.67,-6.39,-6.13,0,*4F
1484906437.54,50908,7.19,74186.8,0.67,-6.43,-6.27,0,*4A
1484906438.75,50909,7.19,74184.8,0.65,-6.13,-5.89,0,*4B
1484906439.95,50910,7.19,74182.8,0.65,-6.19,-6.01,0,*4A
1484906441.16,50911,7.19,74184.8,0.63,-5.97,-5.55,0,*4A
1484906442.4,50912,7.19,74186.5,0.65,-6.19,-5.93,0,*40
1484906443.57,50913,7.19,74188.8,0.65,-6.31,-6.13,0,*40
1484906444.8,50914,7.19,74186.5,0.63,-6.35,-6.23,0,*46
1484906446.01,50915,7.19,74186.8,0.63,-6.47,-6.31,0,*41
1484906447.19,50916,7.19,74190.3,0.61,-6.31,-6.05,0,*46
1484906448.4,50917,7.19,74188.0,0.61,-5.93,-5.51,0,*4E
1484906449.58,50918,7.19,74186.0,0.61,-6.35,-6.09,0,*40
1484906450.76,50919,7.19,74184.8,0.61,-6.31,-6.09,0,*45
1484906451.96,50920,7.19,74188.8,0.59,-6.35,-6.09,0,*40
1484906453.19,50921,7.19,74190.3,0.59,-6.63,-6.35,0,*4D
1484906454.39,50922,7.19,74188.0,0.59,-6.47,-6.13,0,*4C
1484906455.59,50923,7.19,74186.5,0.59,-6.73,-6.35,0,*4E
1484906456.8,50924,7.19,74186.8,0.59,-6.35,-6.01,0,*4C
1484906458.03,50925,7.19,74188.0,0.59,-6.13,-5.89,0,*4A
1484906459.23,50926,7.19,74188.3,0.57,-6.39,-6.19,0,*45
1484906460.41,50927,7.19,74188.5,0.57,-6.43,-6.13,0,*43
1484906461.64,50928,7.19,74190.0,0.57,-5.73,-5.27,0,*48
1484906462.83,50929,7.19,74188.5,0.57,-5.73,-5.39,0,*46
1484906464.04,50930,7.19,74190.5,0.57,-5.39,-5.11,0,*4A
1484906465.27,50931,7.19,74188.8,0.57,-5.23,-4.85,0,*4C
1484906466.5,50932,7.19,74186.8,0.61,-5.19,-4.81,0,*47
1484906467.73,50933,7.19,74190.5,0.61,-5.07,-4.73,0,*44
1484906468.95,50934,7.19,74180.3,0.61,-5.39,-5.03,0,*48
1484906470.16,50935,7.19,74180.5,0.61,-5.51,-5.07,0,*43
1484906471.37,50936,7.19,74182.0,0.65,-5.81,-5.51,0,*4A
1484906472.57,50937,7.19,74184.3,0.65,-6.55,-6.19,0,*4E
1484906473.83,50938,7.19,74182.8,0.63,-5.65,-5.15,0,*48
1484906475.07,50939,7.19,74178.5,0.63,-5.07,-4.61,0,*4F
1484906476.27,50940,7.19,74182.8,0.65,-6.01,-5.61,0,*43
1484906477.48,50941,7.19,74182.5,0.63,-6.85,-6.55,0,*4C
1484906478.72,50942,7.19,74182.3,0.63,-5.55,-5.15,0,*46
1484906479.92,50943,7.19,74186.5,0.63,-5.39,-4.99,0,*48
1484906481.14,50944,7.19,74186.3,0.65,-6.27,-5.93,0,*4E
1484906482.38,50945,7.19,74184.5,0.65,-5.77,-5.23,0,*42
1484906483.62,50946,7.19,74186.8,0.63,-5.81,-5.55,0,*4F
1484906484.82,50947,7.19,74182.3,0.63,-7.11,-6.69,0,*49
1484906486.02,50948,7.19,74182.8,0.63,-7.23,-6.89,0,*49
1484906487.25,50949,7.19,74182.3,0.63,-7.35,-6.85,0,*43
1484906488.46,50950,7.19,74184.0,0.61,-6.35,-5.93,0,*4C
1484906489.7,50951,7.19,74180.0,0.59,-7.27,-6.81,0,*44
1484906490.95,50952,7.19,74184.5,0.59,-5.73,-5.11,0,*4E
1484906492.13,50953,7.19,74186.3,0.61,-6.09,-5.51,0,*4E
1484906493.34,50954,7.19,74184.3,0.63,-6.73,-6.31,0,*43
1484906494.54,50955,7.19,74180.8,0.59,-5.97,-5.35,0,*45
1484906495.77,50956,7.19,74186.0,0.61,-6.23,-5.65,0,*44
1484906497.0,50957,7.19,74182.3,0.59,-6.77,-6.27,0,*4A
1484906498.2,50958,7.19,74184.0,0.59,-6.05,-5.43,0,*41
1484906499.41,50959,7.19,74184.3,0.61,-6.31,-5.65,0,*48
1484906500.62,50960,7.19,74180.0,0.61,-5.97,-5.27,0,*4B
1484906501.86,50961,7.19,74182.5,0.61,-5.85,-5.31,0,*4E
1484906503.1,50962,7.19,74182.5,0.61,-5.85,-5.31,0,*4D
1484906504.3,50963,7.19,74182.3,0.63,-6.05,-5.39,0,*4D
1484906505.51,50964,7.19,74180.0,0.63,-7.11,-6.55,0,*47
1484906506.77,50965,7.19,74184.0,0.63,-6.23,-5.65,0,*46
1484906508.0,50966,7.19,74186.0,0.63,-6.43,-5.85,0,*4D
1484906509.24,50967,7.19,74182.5,0.65,-5.93,-5.23,0,*48
1484906510.44,50968,7.19,74186.0,0.65,-5.51,-4.93,0,*43
1484906511.68,50969,7.19,74184.5,0.63,-6.35,-5.65,0,*4D
1484906512.88,50970,7.19,74182.3,0.65,-5.35,-4.69,0,*4D
1484906514.09,50971,7.19,74182.5,0.65,-6.43,-5.89,0,*41
1484906515.29,50972,7.19,74184.8,0.65,-6.39,-5.81,0,*47
1484906516.47,50973,7.19,74182.5,0.65,-6.01,-5.39,0,*4E
1484906517.69,50974,7.19,74182.8,0.65,-5.73,-5.03,0,*46
1484906518.93,50975,7.19,74182.3,0.67,-5.65,-4.99,0,*40
1484906520.16,50976,7.19,74182.5,0.67,-6.27,-5.51,0,*43
1484906521.36,50977,7.19,74182.8,0.69,-6.47,-5.85,0,*43
1484906522.54,50978,7.19,74182.5,0.69,-6.69,-6.09,0,*47
1484906523.72,50979,7.19,74184.0,0.69,-6.01,-5.35,0,*44
1484906524.89,50980,7.19,74184.3,0.69,-6.69,-6.01,0,*48
1484906526.15,50981,7.19,74182.5,0.67,-6.93,-6.27,0,*46
1484906527.35,50982,7.19,74182.5,0.67,-6.69,-6.01,0,*44
1484906528.55,50983,7.19,74182.0,0.69,-6.89,-6.23,0,*45
1484906529.78,50984,7.19,74182.3,0.67,-7.35,-6.73,0,*4F
1484906531.02,50985,7.19,74182.8,0.67,-7.43,-6.81,0,*42
1484906532.25,50986,7.19,74180.0,0.67,-6.01,-5.15,0,*48
1484906533.48,50987,7.19,74180.5,0.67,-6.39,-5.65,0,*45
1484906534.69,50988,7.19,74178.0,0.67,-6.81,-6.13,0,*4B
1484906535.92,50989,7.19,74178.3,0.67,-6.39,-5.61,0,*4F
1484906537.19,50990,7.19,74182.5,0.67,-6.93,-6.19,0,*4B
1484906538.4,50991,7.19,74182.0,0.67,-7.23,-6.51,0,*4C
1484906539.6,50992,7.19,74182.3,0.67,-6.39,-5.51,0,*46
1484906540.82,50993,7.19,74182.8,0.67,-7.11,-6.31,0,*49
1484906542.08,50994,7.19,74184.8,0.67,-7.05,-6.19,0,*41
1484906543.31,50995,7.19,74180.8,0.67,-6.73,-5.81,0,*42
1484906544.51,50996,7.19,74186.5,0.67,-6.85,-6.05,0,*47
1484906545.76,50997,7.19,74176.5,0.67,-7.05,-6.27,0,*4F
1484906546.99,50998,7.19,74182.0,0.67,-6.73,-5.73,0,*42
1484906548.21,50999,7.19,74180.8,0.67,-7.11,-6.31,0,*43
1484906549.44,51000,7.19,74182.5,0.67,-8.17,-7.43,0,*46
1484906550.66,51001,7.19,74180.3,0.67,-8.25,-7.23,0,*40
1484906551.83,51002,7.19,74180.8,0.65,-7.11,-6.05,0,*4C
1484906553.03,51003,7.19,74184.3,0.65,-7.27,-6.35,0,*4B
1484906554.24,51004,7.19,74182.5,0.65,-7.23,-6.27,0,*4B
1484906555.44,51005,7.19,74180.5,0.65,-6.81,-5.73,0,*41
1484906556.62,51006,7.19,74180.8,0.65,-7.11,-6.13,0,*4F
1484906557.82,51007,7.19,74184.5,0.65,-6.73,-5.61,0,*4D
1484906559.05,51008,7.19,74180.8,0.67,-6.63,-5.39,0,*4C
1484906560.26,51009,7.19,74184.0,0.69,-6.77,-5.77,0,*4C
1484906561.46,51010,7.19,74184.5,0.69,-6.59,-5.69,0,*47
1484906562.7,51011,7.19,74184.3,0.69,-7.01,-5.89,0,*44
1484906563.87,51012,7.19,74180.5,0.73,-6.77,-5.97,0,*43
1484906565.05,51013,7.19,74180.8,0.73,-6.43,-5.51,0,*4F
1484906566.25,51014,7.19,74182.5,0.73,-6.97,-6.05,0,*43
1484906567.48,51015,7.19,74184.0,0.77,-6.51,-5.61,0,*4D
1484906568.67,51016,7.19,74180.0,0.77,-6.51,-5.35,0,*4F
1484906569.88,51017,7.19,74182.8,0.77,-7.05,-6.13,0,*49
1484906571.1,51018,7.19,74180.0,0.77,-6.13,-5.15,0,*45
1484906572.32,51019,7.19,74182.3,0.79,-6.81,-6.01,0,*47
1484906573.53,51020,7.19,74186.8,0.79,-6.85,-6.01,0,*49
1484906574.75,51021,7.19,74182.5,0.81,-6.51,-5.65,0,*47
1484906575.94,51022,7.19,74182.8,0.81,-6.89,-5.97,0,*4C
1484906577.13,51023,7.19,74184.8,0.81,-6.89,-6.01,0,*41
1484906578.35,51024,7.19,74180.3,0.81,-6.69,-5.85,0,*47
1484906579.59,51025,7.19,74182.0,0.81,-7.05,-6.27,0,*46
1484906580.81,51026,7.19,74184.0,0.81,-7.31,-6.47,0,*44
1484906582.02,51027,7.19,74184.0,0.81,-7.27,-6.47,0,*42
1484906583.24,51028,7.19,74182.8,0.81,-7.35,-6.55,0,*4D
1484906584.49,51029,7.19,74182.0,0.79,-7.65,-6.73,0,*4A
1484906585.74,51030,7.19,74182.3,0.79,-7.99,-7.05,0,*41
1484906586.96,51031,7.19,74182.5,0.81,-8.11,-7.15,0,*49
1484906588.21,51032,7.19,74182.0,0.79,-7.65,-6.85,0,*49
1484906589.45,51033,7.19,74182.5,0.79,-7.99,-7.11,0,*47
1484906590.67,51034,7.19,74180.5,0.77,-7.77,-7.11,0,*4E
1484906591.87,51035,7.19,74180.5,0.73,-8.03,-7.15,0,*43
1484906593.05,51036,7.19,74180.5,0.73,-8.21,-7.23,0,*45
1484906594.22,51037,7.19,74184.0,0.73,-8.45,-7.53,0,*41
1484906595.47,51038,7.19,74182.5,0.67,-7.91,-6.97,0,*44
1484906596.67,51039,7.19,74180.3,0.69,-7.39,-6.47,0,*44
1484906597.88,51040,7.19,74182.0,0.69,-7.19,-6.23,0,*4A
1484906599.11,51041,7.19,74184.5,0.69,-7.99,-7.31,0,*41
1484906600.33,51042,7.19,74186.3,0.69,-7.95,-7.01,0,*4D
1484906601.54,51043,7.19,74186.8,0.69,-7.83,-6.63,0,*4E
1484906602.75,51044,7.19,74186.3,0.69,-7.69,-6.51,0,*4C
1484906603.95,51045,7.19,74180.8,0.69,-7.61,-6.51,0,*45
1484906605.16,51046,7.19,74180.5,0.69,-8.67,-7.61,0,*4D
1484906606.4,51047,7.19,74178.0,0.67,-8.71,-7.65,0,*41
1484906607.62,51048,7.19,74176.5,0.67,-9.49,-8.55,0,*48
1484906608.81,51049,7.19,74176.5,0.65,-9.53,-8.33,0,*40
1484906609.99,51050,7.19,74180.5,0.61,-9.31,-8.17,0,*4E
1484906611.24,51051,7.19,74178.8,0.63,-9.45,-8.03,0,*4B
1484906612.45,51052,7.19,74178.3,0.61,-8.89,-7.39,0,*4D
1484906613.68,51053,7.19,74178.8,0.63,-9.53,-8.17,0,*4B
1484906614.89,51054,7.19,74182.8,0.61,-8.89,-7.65,0,*42
1484906616.12,51055,7.19,74182.5,0.59,-9.27,-7.95,0,*42
1484906617.3,51056,7.19,74182.0,0.61,-8.45,-7.11,0,*43
1484906618.52,51057,7.19,74180.3,0.61,-9.01,-7.77,0,*43
1484906619.7,51058,7.19,74180.5,0.61,-7.83,-6.55,0,*49
1484906620.88,51059,7.19,74180.5,0.61,-8.21,-7.11,0,*4E
1484906622.11,51060,7.19,74182.3,0.61,-9.11,-8.03,0,*4A
1484906623.3,51061,7.19,74180.3,0.61,-8.37,-7.15,0,*46
1484906624.48,51062,7.19,74182.8,0.61,-7.83,-6.47,0,*43
1484906625.71,51063,7.19,74184.8,0.59,-8.51,-7.15,0,*4F
1484906626.94,51064,7.19,74180.5,0.61,-8.51,-7.35,0,*41
1484906628.18,51065,7.19,74182.3,0.61,-8.51,-7.39,0,*4C
1484906629.39,51066,7.19,74182.3,0.63,-8.37,-7.23,0,*46
1484906630.6,51067,7.19,74182.5,0.59,-8.55,-7.19,0,*43
1484906631.81,51068,7.19,74178.5,0.61,-8.85,-7.65,0,*41
1484906633.04,51069,7.19,74182.8,0.61,-8.51,-7.27,0,*4F
1484906634.24,51070,7.19,74180.5,0.61,-8.03,-6.69,0,*4B
1484906635.46,51071,7.19,74182.3,0.63,-8.03,-6.77,0,*47
1484906636.65,51072,7.19,74182.8,0.61,-8.45,-7.15,0,*41
1484906637.85,51073,7.19,74182.3,0.61,-8.03,-6.73,0,*43
1484906639.05,51074,7.19,74180.8,0.61,-7.69,-6.31,0,*41
1484906640.26,51075,7.19,74182.5,0.63,-8.21,-6.89,0,*42
1484906641.46,51076,7.19,74180.0,0.63,-8.29,-6.89,0,*49
1484906642.64,51077,7.19,74184.0,0.65,-9.05,-7.53,0,*47
1484906643.84,51078,7.19,74182.3,0.65,-8.11,-6.69,0,*44
1484906645.02,51079,7.19,74184.8,0.65,-8.41,-6.81,0,*46
1484906646.21,51080,7.19,74182.3,0.65,-8.85,-7.11,0,*40
1484906647.44,51081,7.19,74182.8,0.67,-8.71,-7.05,0,*4D
1484906648.65,51082,7.19,74182.3,0.67,-8.71,-7.19,0,*43
1484906649.89,51083,7.19,74182.5,0.67,-8.93,-7.31,0,*44
1484906651.13,51084,7.19,74184.0,0.67,-9.05,-7.35,0,*49
1484906652.36,51085,7.19,74180.0,0.67,-9.37,-7.53,0,*49
1484906653.59,51086,7.19,74180.5,0.67,-9.19,-7.35,0,*46
1484906654.8,51087,7.19,74178.8,0.67,-8.55,-6.73,0,*4D
1484906655.98,51088,7.19,74184.0,0.69,-8.63,-6.77,0,*4D
1484906657.19,51089,7.19,74184.0,0.69,-8.75,-6.93,0,*41
1484906658.37,51090,7.19,74184.0,0.73,-8.71,-7.11,0,*4D
1484906659.58,51091,7.19,74182.5,0.73,-8.71,-6.97,0,*43
1484906660.81,51092,7.19,74182.0,0.73,-8.51,-6.97,0,*42
1484906662.04,51093,7.19,74184.0,0.73,-9.11,-7.57,0,*4B
1484906663.25,51094,7.19,74180.3,0.73,-9.01,-7.27,0,*4A
1484906664.51,51095,7.19,74182.0,0.77,-9.15,-7.61,0,*48
1484906665.69,51096,7.19,74180.0,0.77,-9.67,-8.21,0,*45
1484906666.93,51097,7.19,74180.5,0.77,-9.49,-7.77,0,*44
1484906668.15,51098,7.19,74182.3,0.77,-9.27,-7.69,0,*4C
1484906669.33,51099,7.19,74180.5,0.73,-8.89,-7.23,0,*42
1484906670.58,51100,7.19,74184.3,0.77,-9.37,-7.73,0,*46
1484906671.83,51101,7.19,74182.3,0.77,-9.15,-7.35,0,*45
1484906673.02,51102,7.19,74184.0,0.77,-8.55,-6.85,0,*49
1484906674.23,51103,7.19,74182.3,0.77,-8.59,-6.93,0,*43
1484906675.42,51104,7.19,74180.3,0.77,-8.71,-6.85,0,*49
1484906676.66,51105,7.19,74182.0,0.79,-8.71,-7.05,0,*4F
1484906677.89,51106,7.19,74178.8,0.81,-9.05,-7.27,0,*49
1484906679.08,51107,7.19,74186.0,0.81,-8.75,-7.15,0,*4F
1484906680.29,51108,7.19,74182.3,0.81,-7.87,-6.23,0,*46
1484906681.52,51109,7.19,74180.3,0.85,-8.07,-6.43,0,*42
1484906682.74,51110,7.19,74182.8,0.83,-8.37,-6.77,0,*48
1484906683.93,51111,7.19,74182.5,0.85,-8.37,-6.51,0,*4B
1484906685.18,51112,7.19,74182.8,0.87,-8.11,-6.47,0,*49
1484906686.39,51113,7.19,74178.5,0.85,-8.59,-7.31,0,*46
1484906687.59,51114,7.19,74180.5,0.85,-8.75,-7.11,0,*4D
1484906688.83,51115,7.19,74176.3,0.87,-8.45,-6.97,0,*42
1484906690.03,51116,7.19,74182.0,0.89,-8.71,-7.19,0,*4F
1484906691.25,51117,7.19,74180.8,0.87,-8.45,-6.89,0,*4F
1484906692.49,51118,7.19,74176.3,0.89,-9.41,-7.77,0,*4B
1484906693.74,51119,7.19,74178.3,0.87,-9.19,-7.57,0,*4B
1484906695.0,51120,7.19,74178.5,0.87,-9.53,-7.91,0,*45
1484906696.17,51121,7.19,74182.0,0.89,-10.05,-8.55,0,*76
1484906697.39,51122,7.19,74180.0,0.89,-9.75,-7.99,0,*45
1484906698.61,51123,7.19,74178.8,0.89,-11.07,-9.27,0,*73
1484906699.85,51124,7.19,74182.0,0.87,-10.53,-8.51,0,*7A
1484906701.09,51125,7.19,74184.0,0.87,-11.33,-9.31,0,*7B
1484906702.31,51126,7.19,74184.3,0.87,-11.45,-9.31,0,*79
1484906703.54,51127,7.19,74180.3,0.87,-10.97,-9.05,0,*71
1484906704.74,51128,7.19,74182.0,0.85,-11.45,-8.97,0,*78
1484906705.94,51129,7.19,74180.3,0.85,-10.85,-8.37,0,*7E
1484906707.18,51130,7.19,74180.8,0.87,-10.49,-8.11,0,*70
1484906708.4,51131,7.19,74178.0,0.87,-11.23,-8.75,0,*7E
1484906709.6,51132,7.19,74178.5,0.89,-10.93,-8.45,0,*7A
1484906710.88,51133,7.19,74178.5,0.87,-10.63,-8.07,0,*7C
1484906712.1,51134,7.19,74182.8,0.87,-10.49,-8.21,0,*77
1484906713.28,51135,7.19,74178.8,0.89,-10.45,-8.33,0,*77
1484906714.47,51136,7.19,74180.3,0.89,-10.31,-8.41,0,*72
1484906715.67,51137,7.19,74180.0,0.89,-10.89,-8.85,0,*78
1484906716.91,51138,7.19,74176.3,0.89,-11.33,-9.15,0,*7F
1484906718.13,51139,7.19,74178.8,0.89,-11.01,-8.81,0,*73
1484906719.38,51140,7.19,74180.3,0.89,-11.29,-9.11,0,*7F
1484906720.62,51141,7.19,74182.3,0.87,-10.75,-8.33,0,*79
1484906721.81,51142,7.19,74186.0,0.89,-11.15,-8.93,0,*79
1484906723.01,51143,7.19,74182.0,0.89,-11.15,-8.93,0,*78
1484906724.22,51144,7.19,74186.3,0.89,-10.79,-8.45,0,*7F
1484906725.48,51145,7.19,74184.5,0.91,-10.67,-8.29,0,*72
1484906726.7,51146,7.19,74180.8,0.91,-10.57,-8.17,0,*7F
1484906727.91,51147,7.19,74182.5,0.93,-10.45,-8.03,0,*7A
1484906729.11,51148,7.19,74180.5,0.93,-10.45,-8.17,0,*70
1484906730.32,51149,7.19,74182.8,0.93,-10.75,-8.67,0,*75
1484906731.53,51150,7.19,74176.5,0.93,-11.11,-8.81,0,*76
1484906732.75,51151,7.25,74182.5,0.93,-11.37,-9.31,0,*79
1484906733.97,51152,7.19,74176.3,0.93,-10.19,-8.11,0,*74
1484906735.17,51153,7.19,74178.5,0.93,-10.31,-8.37,0,*7B
1484906736.42,51154,7.19,74178.8,0.93,-10.41,-8.51,0,*7B
1484906737.61,51155,7.19,74180.0,0.93,-10.45,-8.41,0,*7F
1484906738.82,51156,7.19,74180.5,0.93,-10.97,-8.89,0,*77
1484906740.02,51157,7.19,74182.5,0.93,-11.01,-8.89,0,*78
1484906741.21,51158,7.19,74184.5,0.93,-10.97,-8.67,0,*79
1484906742.41,51159,7.19,74186.0,0.93,-10.97,-8.67,0,*78
1484906743.62,51160,7.19,74182.5,0.93,-11.11,-8.81,0,*75
1484906744.81,51161,7.19,74178.5,0.93,-10.89,-8.63,0,*78
1484906746.0,51162,7.19,74178.8,0.93,-10.57,-8.25,0,*7A
1484906747.22,51163,7.19,74174.5,0.97,-10.63,-8.33,0,*7F
1484906748.41,51164,7.19,74178.8,0.97,-10.53,-8.25,0,*7C
1484906749.64,51165,7.19,74178.0,1.01,-11.33,-8.97,0,*4D
1484906750.87,51166,7.19,74178.5,0.99,-11.45,-9.01,0,*71
1484906752.09,51167,7.19,74180.0,0.99,-11.19,-8.71,0,*7F
1484906753.36,51168,7.19,74176.3,0.99,-11.33,-9.15,0,*7B
1484906754.58,51169,7.19,74178.8,1.01,-11.89,-9.79,0,*41
1484906755.86,51170,7.19,74178.8,1.03,-11.63,-9.53,0,*47
1484906757.12,51171,7.19,74182.0,1.01,-11.85,-9.53,0,*4C
1484906758.31,51172,7.19,74184.3,1.01,-12.03,-9.71,0,*42
1484906759.59,51173,7.19,74182.3,1.03,-12.11,-9.83,0,*4F
1484906760.81,51174,7.19,74180.3,1.01,-11.63,-9.23,0,*46
1484906762.04,51175,7.19,74182.5,1.01,-12.11,-9.71,0,*46
1484906763.27,51176,7.19,74186.3,1.03,-11.41,-9.01,0,*46
1484906764.52,51177,7.19,74182.3,1.01,-11.63,-9.15,0,*40
1484906765.74,51178,7.19,74182.8,1.03,-11.19,-8.41,0,*40
1484906766.99,51179,7.19,74182.0,1.03,-11.07,-8.41,0,*4E
1484906768.22,51180,7.19,74180.0,1.07,-11.41,-8.93,0,*41
1484906769.45,51181,7.19,74182.8,1.07,-11.01,-8.29,0,*45
1484906770.67,51182,7.19,74180.5,1.09,-11.23,-8.63,0,*46
1484906771.92,51183,7.19,74182.3,1.09,-12.39,-9.83,0,*40
1484906773.14,51184,7.19,74180.5,1.09,-12.39,-9.89,0,*4D
1484906774.39,51185,7.19,74180.8,1.09,-12.61,-9.97,0,*4E
1484906775.64,51186,7.19,74182.8,1.09,-12.61,-10.01,0,*7A
1484906776.91,51187,7.19,74184.0,1.09,-12.75,-10.01,0,*7E
1484906778.16,51188,7.19,74184.8,1.09,-11.55,-9.01,0,*48
1484906779.38,51189,7.19,74182.3,1.09,-11.23,-8.63,0,*4D
1484906780.63,51190,7.19,74180.5,1.09,-11.33,-8.59,0,*4D
1484906781.82,51191,7.19,74186.0,1.11,-11.19,-8.55,0,*41
1484906783.0,51192,7.19,74180.0,1.11,-11.19,-8.67,0,*43
1484906784.21,51193,7.19,74182.3,1.15,-11.23,-8.63,0,*4B
1484906785.44,51194,7.19,74180.5,1.13,-11.45,-8.97,0,*41
1484906786.69,51195,7.19,74186.0,1.15,-11.67,-9.11,0,*49
1484906787.92,51196,7.19,74182.8,1.15,-11.41,-8.81,0,*46
1484906789.17,51197,7.19,74180.8,1.17,-11.59,-8.97,0,*4B
1484906790.42,51198,7.19,74186.5,1.21,-11.55,-9.05,0,*47
1484906791.63,51199,7.19,74184.5,1.21,-11.11,-8.67,0,*43
1484906792.86,51200,7.19,74186.3,1.21,-10.93,-8.37,0,*4E
1484906794.13,51201,7.19,74182.8,1.21,-11.77,-9.41,0,*44
1484906795.4,51202,7.19,74182.8,1.21,-12.07,-9.61,0,*41
1484906796.63,51203,7.19,74180.8,1.17,-12.29,-9.93,0,*44
1484906797.89,51204,7.19,74184.5,1.23,-11.63,-9.11,0,*43
1484906799.11,51205,7.19,74182.8,1.23,-11.77,-9.23,0,*46
1484906800.33,51206,7.19,74180.5,1.23,-11.07,-8.55,0,*42
1484906801.53,51207,7.19,74182.0,1.23,-10.93,-8.29,0,*44
1484906802.73,51208,7.19,74176.0,1.23,-10.89,-8.45,0,*4A
1484906803.98,51209,7.19,74182.0,1.25,-10.63,-8.41,0,*4D
1484906805.23,51210,7.19,74180.0,1.27,-11.73,-9.53,0,*45
1484906806.42,51211,7.19,74180.3,1.23,-11.19,-8.85,0,*46
1484906807.67,51212,7.19,74182.3,1.25,-10.63,-8.21,0,*41
1484906808.9,51213,7.19,74178.0,1.27,-11.41,-9.11,0,*41
1484906810.13,51214,7.19,74182.0,1.27,-11.29,-9.05,0,*4D
1484906811.37,51215,7.19,74178.8,1.25,-11.37,-9.23,0,*45
1484906812.64,51216,7.19,74182.3,1.25,-11.51,-9.53,0,*41
1484906813.91,51217,7.19,74180.0,1.25,-11.37,-9.37,0,*42
1484906815.19,51218,7.19,74182.3,1.25,-11.33,-9.37,0,*49
1484906816.44,51219,7.19,74178.5,1.23,-11.51,-9.53,0,*48
1484906817.69,51220,7.19,74182.3,1.25,-10.79,-8.85,0,*45
1484906818.94,51221,7.19,74182.0,1.25,-11.45,-9.57,0,*44
1484906820.19,51222,7.19,74182.8,1.23,-11.33,-9.41,0,*47
1484906821.42,51223,7.19,74180.0,1.23,-11.45,-9.37,0,*46
1484906822.62,51224,7.19,74182.0,1.23,-10.89,-9.01,0,*45
1484906823.83,51225,7.19,74180.5,1.23,-10.31,-8.45,0,*46
1484906825.07,51226,7.19,74178.5,1.23,-9.57,-7.77,0,*73
1484906826.29,51227,7.19,74176.8,1.23,-10.41,-8.45,0,*43
1484906827.5,51228,7.19,74178.8,1.25,-10.49,-8.55,0,*43
1484906828.73,51229,7.19,74178.3,1.23,-11.15,-9.15,0,*49
1484906829.95,51230,7.19,74176.5,1.23,-10.75,-8.75,0,*41
1484906831.16,51231,7.19,74182.5,1.21,-10.23,-8.33,0,*43
1484906832.38,51232,7.19,74182.0,1.25,-9.67,-7.83,0,*78
1484906833.63,51233,7.19,74180.0,1.25,-9.57,-7.69,0,*7E
1484906834.84,51234,7.19,74180.5,1.25,-9.93,-8.17,0,*77
1484906836.06,51235,7.19,74180.8,1.29,-10.35,-8.67,0,*49
1484906837.29,51236,7.19,74186.5,1.29,-9.93,-8.03,0,*7C
1484906838.5,51237,7.19,74178.5,1.27,-9.93,-8.11,0,*70
1484906839.76,51238,7.19,74184.8,1.29,-9.61,-7.77,0,*73
1484906841.03,51239,7.19,74182.8,1.29,-9.53,-7.77,0,*73
1484906842.23,51240,7.19,74182.5,1.31,-9.89,-7.99,0,*73
1484906843.48,51241,7.19,74178.5,1.31,-9.37,-7.27,0,*72
1484906844.72,51242,7.19,74180.3,1.31,-9.57,-7.61,0,*75
1484906845.92,51243,7.19,74176.5,1.35,-9.71,-7.83,0,*78
1484906847.13,51244,7.19,74182.5,1.35,-9.23,-7.35,0,*75
1484906848.35,51245,7.19,74180.3,1.35,-9.67,-7.77,0,*72
1484906849.59,51246,7.19,74180.0,1.37,-10.01,-8.11,0,*44
1484906850.81,51247,7.19,74176.8,1.39,-8.93,-6.97,0,*79
1484906852.08,51248,7.19,74182.0,1.37,-9.49,-7.65,0,*72
1484906853.33,51249,7.19,74178.0,1.43,-9.71,-7.99,0,*78
1484906854.57,51250,7.19,74184.3,1.39,-9.53,-7.77,0,*7D
1484906855.84,51251,7.19,74180.0,1.43,-9.45,-7.61,0,*71
1484906857.09,51252,7.19,74178.3,1.43,-9.23,-7.39,0,*7F
1484906858.36,51253,7.19,74178.5,1.43,-9.37,-7.69,0,*7E
1484906859.58,51254,7.19,74176.3,1.43,-9.71,-7.83,0,*7F
1484906860.8,51255,7.19,74176.8,1.43,-10.09,-8.25,0,*4A
1484906861.99,51256,7.19,74182.3,1.45,-9.97,-8.25,0,*70
1484906863.24,51257,7.19,74180.5,1.47,-9.79,-8.07,0,*73
1484906864.46,51258,7.25,74180.8,1.45,-9.49,-7.87,0,*7A
1484906865.65,51259,7.19,74176.8,1.45,-9.23,-7.49,0,*75
1484906866.87,51260,7.19,74180.8,1.47,-9.93,-8.21,0,*77
1484906868.07,51261,7.19,74176.3,1.45,-10.15,-8.41,0,*44
1484906869.31,51262,7.19,74178.8,1.45,-9.49,-7.73,0,*78
1484906870.51,51263,7.19,74176.0,1.45,-10.19,-8.55,0,*4F
1484906871.74,51264,7.19,74182.0,1.45,-10.15,-8.51,0,*40
1484906872.96,51265,7.19,74178.8,1.47,-10.23,-8.59,0,*4E
1484906874.15,51266,7.19,74178.0,1.45,-10.19,-8.67,0,*4B
1484906875.38,51267,7.19,74180.5,1.45,-10.67,-8.93,0,*48
1484906876.61,51268,7.19,74176.3,1.45,-10.19,-8.51,0,*40
1484906877.83,51269,7.19,74172.3,1.45,-10.41,-8.63,0,*4D
1484906879.05,51270,7.19,74176.8,1.45,-9.83,-8.21,0,*75
1484906880.23,51271,7.19,74172.8,1.45,-9.97,-8.55,0,*72
1484906881.48,51272,7.19,74178.5,1.45,-9.49,-8.07,0,*75
1484906882.71,51273,7.19,74176.3,1.45,-9.05,-7.61,0,*73
1484906883.9,51274,7.19,74178.8,1.45,-9.75,-8.33,0,*7B
1484906885.08,51275,7.19,74178.8,1.45,-9.97,-8.63,0,*73
1484906886.29,51276,7.19,74180.5,1.45,-9.83,-8.33,0,*70
1484906887.52,51277,7.19,74180.0,1.45,-10.97,-9.45,0,*4C
1484906888.74,51278,7.19,74182.3,1.47,-10.35,-8.59,0,*45
1484906889.94,51279,7.19,74180.0,1.45,-10.93,-9.23,0,*46
1484906891.18,51280,7.19,74182.5,1.47,-9.97,-8.51,0,*7A
1484906892.39,51281,7.19,74178.5,1.47,-10.09,-8.63,0,*45
1484906893.61,51282,7.19,74178.5,1.47,-9.67,-8.21,0,*70
1484906894.86,51283,7.19,74178.5,1.47,-10.49,-9.11,0,*47
1484906896.08,51284,7.19,74182.8,1.47,-10.15,-8.75,0,*4A
1484906897.31,51285,7.19,74178.0,1.47,-9.71,-8.45,0,*72
1484906898.53,51286,7.19,74182.3,1.47,-10.35,-8.75,0,*4A
1484906899.75,51287,7.19,74176.8,1.47,-10.05,-8.37,0,*4E
1484906900.99,51288,7.19,74178.3,1.47,-9.93,-8.07,0,*75
1484906902.25,51289,7.19,74176.5,1.47,-10.67,-8.89,0,*41
1484906903.48,51290,7.19,74180.5,1.49,-10.67,-8.97,0,*48
1484906904.68,51291,7.19,74180.5,1.49,-10.15,-8.37,0,*46
1484906905.94,51292,7.19,74180.8,1.47,-10.63,-9.01,0,*4E
1484906907.2,51293,7.19,74182.0,1.47,-9.57,-7.91,0,*77
1484906908.48,51294,7.19,74180.5,1.47,-9.41,-7.57,0,*7D
1484906909.72,51295,7.19,74180.5,1.51,-9.27,-7.39,0,*73
1484906910.96,51296,7.19,74176.5,1.51,-9.75,-8.03,0,*71
1484906912.18,51297,7.19,74178.8,1.51,-10.09,-8.45,0,*41
1484906913.4,51298,7.19,74172.8,1.51,-9.05,-7.49,0,*79
1484906914.62,51299,7.19,74174.8,1.53,-9.23,-7.69,0,*7C
1484906915.84,51300,7.19,74174.8,1.53,-8.93,-7.43,0,*7F
1484906917.03,51301,7.19,74176.0,1.53,-10.05,-8.55,0,*40
1484906918.28,51302,7.19,74178.3,1.55,-10.67,-9.19,0,*48
1484906919.49,51303,7.19,74176.3,1.53,-9.83,-8.29,0,*7F